RH
88 88 84 84 85 89 78 72 74 74 69 69 73 72 68 68 70 64 58 51 48 47 45 45 44 45 45 47 47 46 48 48 53 52 48 47 56 55
96 94 91 91 87 87 75 73 69 68 64 69 73 69 69 71 70 63 56 52 50 50 50 49 49 49 49 49 46 49 48 50 51 49 50 48 62 61
91 93 93 95 87 94 83 78 72 65 63 67 73 77 76 76 73 65 59 55 52 51 51 51 50 50 50 49 50 51 51 51 50 47 46 47 60 63
92 97 96 94 89 81 81 82 72 74 73 71 79 80 78 76 73 66 58 55 53 54 53 51 51 52 52 53 54 54 54 53 50 53 48 50 51 58
97 93 91 85 79 78 88 84 75 71 75 79 81 83 78 79 71 62 58 57 55 53 51 51 52 51 51 52 55 57 57 53 53 51 52 46 48 61
91 87 83 77 77 87 96 90 82 83 87 90 91 84 82 76 66 60 58 57 53 50 51 51 50 49 49 51 54 57 56 55 51 46 46 44 52 58
85 81 79 87 90 91 95 95 92 88 96 95 91 88 83 73 62 62 57 53 51 55 54 54 53 53 54 53 52 51 54 51 44 42 44 46 51 54
88 84 82 88 94 99 95 92 91 95 96 95 92 88 78 69 64 59 57 56 55 57 60 60 60 57 55 52 50 54 53 47 44 50 52 52 50 54
92 89 88 96 90 87 98 98 95 97 96 95 92 79 72 64 66 58 60 61 61 64 65 58 61 58 55 53 52 51 48 45 47 51 52 56 55 57
88 86 94 98 94 94 95 97 97 98 96 87 74 66 59 66 66 70 65 69 71 70 73 65 67 61 58 53 44 42 43 46 50 58 58 57 56 59
80 88 90 93 93 98 96 97 96 85 78 72 64 62 72 73 72 71 79 80 73 68 74 74 68 65 57 47 40 33 40 50 59 61 62 61 58 62
95 89 96 99 96 98 95 89 86 79 69 68 76 78 77 74 81 81 80 81 82 79 77 78 71 67 57 39 35 45 54 60 62 63 63 64 66 64
92 97 97 97 97 94 90 83 77 81 81 82 82 84 86 88 86 82 80 86 84 79 76 76 64 58 51 44 38 45 61 67 68 71 72 67 64 62
98 97 97 96 91 84 83 91 93 93 92 89 89 91 90 89 87 86 82 78 77 75 68 68 55 49 52 50 49 52 68 75 84 83 80 71 62 58
96 97 97 96 97 97 97 95 93 93 96 97 97 97 95 92 89 86 79 72 68 64 47 41 47 47 53 54 62 63 79 81 86 85 80 70 62 68
97 97 97 97 97 97 97 97 97 97 97 97 97 97 96 91 84 78 72 68 52 32 30 30 34 44 51 59 71 74 85 90 91 88 77 69 66 78
97 97 97 97 97 97 97 97 98 98 98 98 98 94 88 82 75 67 52 38 32 24 19 21 25 31 42 63 74 76 92 97 98 89 75 69 77 86
97 97 97 97 97 98 98 98 98 98 98 97 92 83 70 60 52 39 31 25 22 21 21 21 23 27 36 54 75 86 96 97 93 78 69 75 87 84
96 95 96 97 97 98 99 99 96 89 79 73 67 58 47 38 31 28 27 26 24 24 24 28 33 40 48 60 82 95 98 88 90 79 72 83 86 83
91 89 85 80 76 73 71 69 66 60 52 44 39 36 36 36 35 34 34 33 32 30 29 34 40 48 58 81 91 99 98 91 82 72 80 86 87 84
60 60 59 56 53 49 44 43 42 42 42 42 42 43 43 42 43 43 43 42 42 40 36 38 46 53 73 99 99 99 97 91 73 73 84 90 88 85
36 37 38 40 41 42 43 44 45 46 48 49 49 49 50 52 53 53 54 52 53 51 47 46 54 60 84 99 99 99 97 85 76 78 89 89 88 87
32 35 38 40 43 45 48 50 51 52 55 55 56 57 59 61 63 63 64 65 64 61 58 57 64 68 93 99 99 99 93 80 78 86 90 91 88 91